Location: Betzi
(47.2343°N, 9.5260°E)
Time: 22:08:24
(UTC+00:00)

CZ-4C R/B - Pass Details

Date: 27 May 2022
Orbit: 582 x 1419 km, 63.4° (Epoch: 29 June)

Event Time Altitude Azimuth Distance (km) Brightness Sun altitude
Rises 00:48:06 0° 312° (NW) 3,949 5.9 -18.6°
Reaches altitude 10° 00:51:05 10° 301° (WNW) 3,111 5.2 -18.4°
Maximum altitude 00:57:11 27° 248° (WSW) 2,282 4.0 -18.0°
Enters shadow 00:59:32 24° 223° (SW) 2,491 4.0 -17.9°
